{"data":{"norad_id":65771,"intl_designator":"2025-217K","name":"KUIPER-00151","alt_names":[],"object_type":"PAYLOAD","status":"ACTIVE","operator":null,"country":"US","launch_date":"2025-09-25","launch_site_code":"AFETR","launch_vehicle":null,"mission":null,"orbit_class":"UNKNOWN","rcs_meters":null,"size_class":null,"mass_kg":null,"dimensions":null,"purposes":[],"wikipedia_slug":null,"has_3d_model":false,"image_url":null,"decayed_at":null,"tle_current":{"epoch":"2026-09-20T22:41:57.897600Z","epoch_age_seconds":108295,"freshness":"FRESH","line1":"1 65771U 25217K   26263.94580900  .00000297  00000+0  68017-4 0  9990","line2":"2 65771  51.9009 259.7011 0000570  53.3824 306.7191 14.79931215 53797","mean_motion":14.79931215,"eccentricity":5.7e-5,"inclination_deg":51.9009,"raan_deg":259.7011,"arg_perigee_deg":53.3824,"mean_anomaly_deg":306.7191,"bstar":6.8017e-5,"rev_number":5379,"period_min":97.301819530849,"perigee_km":629.14182632229,"apogee_km":629.94070164438,"semimajor_km":7007.6782639833,"source":"CELESTRAK","updated_at":"2026-09-21T09:00:15.558711Z"}}}